Flag for Germany Weather past 2 weeks in Wolfsburg, Lower Saxony, Germany

Now
45 °F

Quite cool.


Feels Like: 36 °F
Forecast: 36 / 44 °F
Wind: 22 mph from West

Location: Celle Airport

Current Time: Dec 20, 2014 at 8:04:43 AM

Latest Report: Dec 20, 2014 at 7:20 AM


Visibility: 5 mi

Pressure: 29.92 "Hg

Humidity: 76%

Dew point: 37 °F

Location of WolfsburgLocation

Historic Weather in Wolfsburg — Graph

°F

Wolfsburg temperature yesterday

Maximum temperature yesterday: 54 °F (at 1:20 AM)
Minimum temperature yesterday: 43 °F (at 6:20 PM)
Average temperature yesterday: 49 °F

Past Weeks' High & Low Weather Summary

 TemperatureHumidityPressure
High54 °F (Dec 18, 3:20 PM)100% (Dec 5, 6:20 AM)30.36 "Hg (Dec 5, 6:20 AM)
Low32 °F (Dec 9, 8:20 PM)70% (Dec 10, 5:20 AM)29.33 "Hg (Dec 12, 1:20 PM)
Average41 °F88%29.88 "Hg
* Reported Dec 5 6:20 AM — Dec 20 6:20 AM, Wolfsburg, Weather by CustomWeather, © 2014

Note: Actual official high and low records may vary slightly from our data, if they occured in-between our weather recording intervals... More about our weather records

Advertising

Wolfsburg weather history for previous 24 hours

 ConditionsComfort  
Time TempWeatherWind HumidityBarometerVisibility
6:20 AM
Dec 20
45 °FQuite cool.18 mph76%29.92 "HgN/A
5:20 AM43 °FQuite cool.18 mph81%29.92 "HgN/A
4:20 AM45 °FQuite cool.17 mph71%29.92 "HgN/A
3:20 AM43 °FQuite cool.16 mph76%29.92 "HgN/A
2:20 AM43 °FQuite cool.17 mph76%29.92 "HgN/A
1:20 AM43 °FQuite cool.18 mph76%29.92 "HgN/A
12:20 AM43 °FQuite cool.15 mph76%29.92 "HgN/A
11:20 PM
Dec 19
43 °FQuite cool.13 mph81%29.89 "HgN/A
10:20 PM43 °FQuite cool.13 mph81%29.89 "Hg4 mi
9:20 PM43 °FQuite cool.14 mph81%29.89 "HgN/A
8:20 PM43 °FQuite cool.12 mph81%29.86 "HgN/A
7:20 PM43 °FQuite cool.12 mph81%29.83 "HgN/A
6:20 PM43 °FQuite cool.10 mph81%29.83 "HgN/A
5:20 PM45 °FQuite cool.10 mph81%29.80 "HgN/A
4:20 PM46 °FCool.8 mph82%29.77 "HgN/A
3:20 PM48 °FCool.9 mph87%29.74 "HgN/A
2:20 PM48 °FCool.8 mph94%29.71 "HgN/A
1:20 PM48 °FCool.8 mph94%29.71 "Hg5 mi
12:20 PM48 °FCool.8 mph100%29.68 "HgN/A
11:20 AM52 °FCool.20 mph94%29.65 "Hg4 mi
10:20 AM52 °FCool.18 mph94%29.68 "Hg6 mi
9:20 AM52 °FCool.18 mph94%29.68 "Hg4 mi
8:20 AM52 °FCool.18 mph94%29.68 "Hg2 mi
Weather by CustomWeather, © 2014

See weather overviewHow to use our weather pages